Timestamp[UTC];2m Lufttemperatur [degC] (tas);Stations-Luftdruck [Pa] (ps);relative Luftfeuchtigkeit [%] (hurs);spezifische Luftfeuchtigkeit [kg/kg] (huss);Niederschlagsmenge [mm] (pr);Windgeschwindigkeit in 2m [m/s] (sfcWind);Windrichtung [deg];maximale Windgeschwindigkeit [m/s] (wsgsmax);u-Windkomponente [m/s] (uas);v-Windkomponente [m/s] (vas);Sonneneinstrahlung [W/m2];Blitzrate [n];Blitzentfernung [km];Bodenfeuchte in 5cm Tiefe [vol%];Bodenfeuchte in 15cm Tiefe [vol%];Bodenfeuchte in 30cm Tiefe [vol%];Bodenfeuchte in 60cm Tiefe [vol%];Bodentemperatur in 5cm Tiefe [degC];Bodentemperatur in 15cm Tiefe [degC];Bodentemperatur in 30cm Tiefe [degC];Bodentemperatur in 60cm Tiefe [degC];Matrixpotential in 30cm Tiefe [kPa];Bodenfeuchte aus CRNS [vol%] (mrso);Neutronen Anzahl [N/h]
2023-12-01 00:00:00;-0,2;100111;88;0,0033;0,0;2,2;71;3,3;1,98;0,67;0;0;nan;39,7;44,0;40,2;40,7;4,5;5,1;6,1;7,3;5,9;31,5;1299
2023-12-01 01:00:00;-0,4;100147;89;0,0033;0,0;3,0;64;3,8;2,65;1,31;0;0;nan;39,7;44,0;40,2;40,7;4,5;5,1;6,1;7,3;5,9;31,9;1295
2023-12-01 02:00:00;-0,4;100170;89;0,0033;0,0;3,0;59;4,0;2,54;1,52;0;0;nan;39,7;43,9;40,2;40,7;4,5;5,1;6,0;7,3;5,9;32,2;1291
2023-12-01 03:00:00;-0,1;100173;87;0,0033;0,0;2,5;35;3,2;1,42;2,01;0;0;nan;39,6;43,9;40,2;40,7;4,4;5,1;6,0;7,2;5,9;31,9;1294
2023-12-01 04:00:00;0,2;100207;86;0,0033;0,0;2,6;31;3,6;1,35;2,23;0;0;nan;39,6;43,9;40,2;40,7;4,4;5,1;6,0;7,2;5,9;32,1;1292
2023-12-01 05:00:00;0,3;100250;87;0,0034;0,0;2,7;38;3,6;1,62;2,06;0;0;nan;39,6;43,9;40,2;40,7;4,4;5,1;6,0;7,2;5,8;32,4;1289
2023-12-01 06:00:00;0,2;100289;88;0,0034;0,0;2,8;36;3,8;1,65;2,26;0;0;nan;39,6;43,9;40,2;40,7;4,4;5,1;6,0;7,2;5,8;32,4;1289
2023-12-01 07:00:00;0,2;100338;87;0,0033;0,0;2,8;32;4,0;1,51;2,38;1;0;nan;39,6;43,9;40,2;40,7;4,4;5,0;6,0;7,2;5,8;33,0;1282
2023-12-01 08:00:00;-0,2;100370;87;0,0033;0,0;3,8;20;5,3;1,28;3,54;10;0;nan;39,6;43,9;40,1;40,6;4,3;5,0;6,0;7,2;5,8;33,1;1281
2023-12-01 09:00:00;-0,5;100420;87;0,0032;0,0;3,2;24;4,1;1,29;2,89;34;0;nan;39,5;43,9;40,1;40,6;4,3;5,0;6,0;7,2;5,8;32,7;1286
2023-12-01 10:00:00;-0,6;100436;86;0,0031;0,0;3,1;28;4,6;1,43;2,71;54;0;nan;39,5;43,8;40,1;40,6;4,3;5,0;6,0;7,2;5,8;32,4;1289
2023-12-01 11:00:00;-0,6;100422;84;0,0031;0,0;3,1;44;4,8;2,05;2,11;63;0;nan;39,5;43,8;40,1;40,6;4,3;5,0;5,9;7,2;5,7;32,0;1294
2023-12-01 12:00:00;-0,9;100440;84;0,003;0,0;3,1;49;4,0;2,21;1,92;59;0;nan;39,5;43,8;40,1;40,6;4,3;5,0;5,9;7,2;5,7;31,8;1296
2023-12-01 13:00:00;-0,9;100460;83;0,0029;0,0;2,4;50;3,6;1,69;1,43;35;0;nan;39,5;43,8;40,0;40,6;4,3;4,9;5,9;7,1;5,7;31,8;1296
2023-12-01 14:00:00;-1,3;100495;82;0,0028;0,0;2,7;54;3,8;2,11;1,52;21;0;nan;39,4;43,8;40,0;40,6;4,2;4,9;5,9;7,1;5,7;31,6;1297
2023-12-01 15:00:00;-1,4;100541;80;0,0027;0,0;2,9;43;3,7;1,91;2,04;2;0;nan;39,4;43,8;40,0;40,6;4,2;4,9;5,9;7,1;5,7;32,1;1292
2023-12-01 16:00:00;-1,3;100563;80;0,0027;0,0;2,9;48;4,6;2,08;1,88;0;0;nan;39,4;43,8;40,0;40,6;4,2;4,9;5,9;7,1;5,7;32,0;1293
2023-12-01 17:00:00;-1,5;100596;79;0,0027;0,0;3,4;65;5,0;3,06;1,45;0;0;nan;39,3;43,8;40,0;40,5;4,1;4,9;5,9;7,1;5,6;31,8;1295
2023-12-01 18:00:00;-1,7;100617;80;0,0027;0,0;2,4;71;4,2;2,26;0,79;0;0;nan;39,3;43,7;40,0;40,5;4,1;4,9;5,8;7,1;5,6;31,7;1296
2023-12-01 19:00:00;-1,9;100653;82;0,0027;0,0;2,6;32;3,7;1,36;2,16;0;0;nan;39,3;43,7;40,0;40,5;4,0;4,8;5,8;7,1;5,6;31,5;1299
2023-12-01 20:00:00;-1,9;100677;82;0,0027;0,0;2,1;38;3,0;1,22;1,58;0;0;nan;39,3;43,7;40,0;40,5;4,0;4,8;5,8;7,1;5,6;31,6;1298
2023-12-01 21:00:00;-1,9;100696;82;0,0027;0,0;2,8;20;4,3;0,95;2,64;0;0;nan;39,3;43,7;39,9;40,5;4,0;4,8;5,8;7,0;5,5;31,7;1297
2023-12-01 22:00:00;-2,1;100700;81;0,0026;0,0;3,3;34;5,4;1,83;2,67;0;0;nan;39,2;43,7;39,9;40,5;3,9;4,7;5,8;7,0;5,5;31,5;1298
2023-12-01 23:00:00;-2,0;100734;81;0,0026;0,0;3,8;24;5,6;1,53;3,45;0;0;nan;39,2;43,7;39,9;40,5;3,9;4,7;5,8;7,0;5,5;31,5;1299
2023-12-02 00:00:00;-2,0;100737;81;0,0026;0,0;3,2;10;4,6;0,56;3,06;0;0;nan;39,2;43,7;39,9;40,5;3,9;4,7;5,7;7,0;5,5;31,3;1301
2023-12-02 01:00:00;-2,0;100737;81;0,0027;0,0;3,1;19;4,4;1,01;2,9;0;0;nan;39,2;43,7;39,9;40,5;3,8;4,6;5,7;7,0;5,4;31,0;1304
2023-12-02 02:00:00;-2,1;100757;82;0,0026;0,0;2,7;29;3,8;1,28;2,35;0;0;nan;39,2;43,7;39,9;40,5;3,8;4,6;5,7;7,0;5,4;31,0;1304
2023-12-02 03:00:00;-2,3;100789;81;0,0026;0,0;2,2;44;3,3;1,43;1,48;0;0;nan;39,2;43,6;39,9;40,4;3,8;4,6;5,7;7,0;5,4;31,1;1304
2023-12-02 04:00:00;-2,2;100824;82;0,0026;0,0;1,6;56;2,4;1,32;0,9;0;0;nan;39,2;43,6;39,9;40,4;3,7;4,5;5,6;6,9;5,3;30,7;1308
2023-12-02 05:00:00;-2,2;100877;82;0,0026;0,0;1,0;20;1,5;0,3;0,8;0;0;nan;39,1;43,6;39,9;40,4;3,7;4,5;5,6;6,9;5,3;30,6;1309
2023-12-02 06:00:00;-2,6;100904;82;0,0026;0,0;0,7;341;1,1;-0,08;0,24;0;0;nan;39,1;43,6;39,9;40,4;3,7;4,5;5,6;6,9;5,3;30,3;1312
2023-12-02 07:00:00;-3,1;100964;85;0,0025;0,0;1,0;245;1,3;-0,86;-0,41;11;0;nan;39,1;43,6;39,9;40,4;3,6;4,5;5,6;6,9;5,3;30,0;1316
2023-12-02 08:00:00;-2,6;101010;92;0,0029;0,0;1,6;251;2,0;-1,45;-0,5;97;0;nan;39,1;43,6;39,9;40,4;3,5;4,4;5,5;6,9;5,2;29,9;1317
2023-12-02 09:00:00;-1,8;101015;91;0,003;0,0;2,7;249;3,9;-2,46;-0,95;169;0;nan;39,1;43,6;39,9;40,4;3,5;4,4;5,5;6,9;5,2;30,0;1316
2023-12-02 10:00:00;-1,3;101038;84;0,0029;0,0;3,1;256;4,7;-3,0;-0,74;135;0;nan;39,1;43,5;39,8;40,4;3,4;4,3;5,5;6,9;5,2;29,6;1321
2023-12-02 11:00:00;-0,8;100996;86;0,003;0,0;3,2;253;4,5;-3,05;-0,95;225;0;nan;39,0;43,5;39,8;40,3;3,4;4,3;5,5;6,8;5,2;29,7;1320
2023-12-02 12:00:00;-0,2;101050;82;0,003;0,0;3,1;243;4,2;-2,75;-1,38;160;0;nan;39,0;43,5;39,8;40,3;3,4;4,3;5,4;6,8;5,2;29,7;1320
2023-12-02 13:00:00;0,1;101083;80;0,0031;0,0;2,7;252;3,9;-2,52;-0,84;82;0;nan;39,0;43,5;39,8;40,3;3,5;4,3;5,4;6,8;5,2;29,2;1326
2023-12-02 14:00:00;0,0;101135;81;0,0031;0,0;2,3;232;3,4;-1,8;-1,42;30;0;nan;39,0;43,5;39,8;40,3;3,6;4,3;5,4;6,8;5,2;29,3;1325
2023-12-02 15:00:00;0,1;101210;83;0,0031;0,0;2,3;205;3,4;-0,99;-2,1;5;0;nan;39,0;43,5;39,8;40,3;3,6;4,3;5,4;6,8;5,2;28,9;1330
2023-12-02 16:00:00;0,1;101286;84;0,0032;0,0;2,9;222;3,9;-1,9;-2,09;0;0;nan;38,9;43,5;39,8;40,3;3,5;4,3;5,4;6,7;5,2;28,6;1333
2023-12-02 17:00:00;0,2;101350;85;0,0032;0,0;3,3;208;4,4;-1,52;-2,9;0;0;nan;38,9;43,5;39,8;40,3;3,5;4,3;5,4;6,7;5,1;29,0;1328
2023-12-02 18:00:00;0,2;101388;85;0,0032;0,0;4,1;205;5,7;-1,74;-3,75;0;0;nan;38,9;43,5;39,8;40,3;3,5;4,3;5,4;6,7;5,1;29,4;1324
2023-12-02 19:00:00;0,2;101418;85;0,0032;0,0;4,2;206;5,3;-1,85;-3,74;0;0;nan;38,9;43,4;39,8;40,3;3,5;4,3;5,3;6,7;5,1;29,5;1322
2023-12-02 20:00:00;0,2;101456;84;0,0032;0,0;3,8;206;5,2;-1,67;-3,42;0;0;nan;38,9;43,4;39,8;40,2;3,4;4,3;5,3;6,7;5,1;29,3;1324
2023-12-02 21:00:00;0,1;101488;84;0,0032;0,0;4,4;206;6,2;-1,93;-3,9;0;0;nan;38,9;43,4;39,8;40,2;3,4;4,2;5,3;6,7;5,1;29,4;1324
2023-12-02 22:00:00;0,1;101516;84;0,0032;0,0;4,7;207;6,4;-2,13;-4,21;0;0;nan;38,9;43,4;39,8;40,2;3,4;4,2;5,3;6,7;5,0;29,5;1322
2023-12-02 23:00:00;-0,2;101547;85;0,0032;0,0;5,0;210;6,4;-2,48;-4,28;0;0;nan;38,8;43,4;39,8;40,2;3,4;4,2;5,3;6,6;5,0;29,9;1317
2023-12-03 00:00:00;-0,4;101578;87;0,0032;0,0;4,7;215;7,0;-2,7;-3,8;0;0;nan;38,8;43,4;39,8;40,2;3,3;4,1;5,3;6,6;5,0;30,0;1316
2023-12-03 01:00:00;-0,2;101587;89;0,0033;0,0;4,4;221;6,3;-2,92;-3,3;0;0;nan;38,8;43,4;39,8;40,2;3,3;4,1;5,2;6,6;5,0;30,2;1314
2023-12-03 02:00:00;0,4;101620;90;0,0035;0,0;4,0;228;5,8;-2,98;-2,69;0;0;nan;38,8;43,4;39,8;40,2;3,2;4,1;5,2;6,6;5,0;29,9;1317
2023-12-03 03:00:00;0,7;101648;90;0,0036;0,0;4,4;202;6,7;-1,67;-4,07;0;0;nan;38,8;43,4;39,7;40,2;3,2;4,1;5,2;6,6;4,9;30,2;1313
2023-12-03 04:00:00;0,2;101660;89;0,0034;0,0;4,6;203;6,0;-1,81;-4,2;0;0;nan;38,8;43,4;39,7;40,2;3,2;4,1;5,2;6,6;4,9;30,5;1310
2023-12-03 05:00:00;0,1;101690;89;0,0034;0,0;3,1;204;4,7;-1,22;-2,79;0;0;nan;38,8;43,4;39,7;40,2;3,2;4,0;5,2;6,6;4,9;30,7;1308
2023-12-03 06:00:00;-0,3;101720;89;0,0033;0,0;3,1;193;3,9;-0,71;-2,98;0;0;nan;38,8;43,4;39,7;40,2;3,2;4,0;5,2;6,5;4,9;30,9;1305
2023-12-03 07:00:00;-0,4;101748;88;0,0032;0,0;4,9;190;6,7;-0,81;-4,8;10;0;nan;38,8;43,3;39,7;40,2;3,2;4,0;5,1;6,5;4,9;30,9;1306
2023-12-03 08:00:00;-0,2;101746;91;0,0033;0,0;4,6;185;5,9;-0,39;-4,58;89;0;nan;38,7;43,3;39,7;40,1;3,2;4,0;5,1;6,5;4,9;31,0;1304
2023-12-03 09:00:00;0,1;101760;90;0,0034;0,0;4,4;183;6,1;-0,24;-4,34;151;0;nan;38,7;43,3;39,7;40,1;3,1;4,0;5,1;6,5;4,8;31,2;1302
2023-12-03 10:00:00;1,2;101720;82;0,0034;0,0;4,8;189;6,4;-0,72;-4,76;133;0;nan;38,7;43,3;39,7;40,1;3,1;3,9;5,1;6,5;4,8;31,8;1296
2023-12-03 11:00:00;1,6;101693;81;0,0034;0,0;5,5;189;8,0;-0,83;-5,4;196;0;nan;38,7;43,3;39,7;40,1;3,2;3,9;5,1;6,5;4,8;32,1;1291
2023-12-03 12:00:00;2,0;101648;77;0,0033;0,0;5,4;183;7,6;-0,29;-5,3;155;0;nan;38,7;43,3;39,7;40,1;3,2;3,9;5,1;6,5;4,9;32,6;1286
2023-12-03 13:00:00;1,9;101627;76;0,0033;0,0;4,9;160;6,4;1,7;-4,57;101;0;nan;38,7;43,3;39,7;40,1;3,3;3,9;5,1;6,4;4,9;33,4;1279
2023-12-03 14:00:00;1,4;101582;79;0,0033;0,0;4,6;157;6,0;1,78;-4,21;21;0;nan;38,6;43,3;39,7;40,1;3,3;4,0;5,0;6,4;4,9;34,0;1272
2023-12-03 15:00:00;1,3;101575;79;0,0033;0,0;4,9;155;6,9;2,12;-4,46;5;0;nan;38,6;43,2;39,7;40,1;3,4;4,0;5,0;6,4;4,9;34,2;1270
2023-12-03 16:00:00;1,3;101515;78;0,0032;0,0;6,0;152;9,0;2,81;-5,32;0;0;nan;38,6;43,2;39,7;40,1;3,3;4,0;5,0;6,4;4,9;34,4;1268
2023-12-03 17:00:00;1,1;101460;77;0,0031;0,0;7,4;155;10,9;3,08;-6,75;0;0;nan;38,6;43,2;39,7;40,1;3,3;4,0;5,0;6,4;4,9;34,6;1266
2023-12-03 18:00:00;0,3;101402;83;0,0032;0,0;6,9;156;9,3;2,77;-6,31;0;0;nan;38,6;43,2;39,6;40,1;3,3;4,0;5,0;6,4;4,8;34,5;1268
2023-12-03 19:00:00;-0,0;101359;88;0,0033;0,0;6,1;156;8,0;2,44;-5,57;0;0;nan;38,6;43,2;39,6;40,1;3,3;4,0;5,0;6,3;4,8;34,7;1266
2023-12-03 20:00:00;0,0;101275;90;0,0034;0,0;6,2;152;7,9;2,87;-5,45;0;0;nan;38,5;43,2;39,6;40,0;3,2;4,0;5,0;6,3;4,8;34,8;1264
2023-12-03 21:00:00;-0,0;101235;90;0,0034;0,0;6,7;155;9,1;2,79;-6,04;0;0;nan;38,5;43,2;39,6;40,0;3,2;4,0;5,0;6,3;4,8;35,1;1261
2023-12-03 22:00:00;-0,3;101170;90;0,0033;0,0;5,9;150;8,2;2,93;-5,09;0;0;nan;38,5;43,2;39,6;40,0;3,2;3,9;5,0;6,3;4,8;35,1;1262
2023-12-03 23:00:00;-0,3;101116;89;0,0033;0,0;5,2;150;7,1;2,62;-4,5;0;0;nan;38,5;43,1;39,6;40,0;3,1;3,9;5,0;6,3;4,8;34,7;1265
2023-12-04 00:00:00;-0,3;101044;87;0,0032;0,0;5,2;152;6,8;2,43;-4,6;0;0;nan;38,5;43,1;39,6;40,0;3,1;3,9;4,9;6,3;4,7;35,4;1259
2023-12-04 01:00:00;-0,1;100990;84;0,0032;0,0;4,9;155;6,4;2,1;-4,42;0;0;nan;38,5;43,1;39,6;40,0;3,1;3,9;4,9;6,3;4,7;35,6;1256
2023-12-04 02:00:00;0,1;100922;83;0,0031;0,0;5,2;153;6,6;2,36;-4,65;0;0;nan;38,5;43,1;39,6;40,0;3,1;3,8;4,9;6,3;4,7;35,9;1253
2023-12-04 03:00:00;0,2;100860;80;0,0031;0,0;6,2;156;8,5;2,5;-5,62;0;0;nan;38,5;43,1;39,6;40,0;3,0;3,8;4,9;6,2;4,7;35,8;1255
2023-12-04 04:00:00;0,1;100793;79;0,003;0,0;5,4;153;7,0;2,46;-4,75;0;0;nan;38,5;43,1;39,6;40,0;3,0;3,8;4,9;6,2;4,7;35,5;1257
2023-12-04 05:00:00;0,2;100732;77;0,0029;0,0;5,4;150;7,5;2,69;-4,7;0;0;nan;38,5;43,1;39,6;40,0;3,0;3,8;4,9;6,2;4,6;35,6;1256
2023-12-04 06:00:00;0,4;100650;75;0,0029;0,0;5,2;151;7,1;2,56;-4,55;0;0;nan;38,5;43,1;39,6;40,0;3,0;3,7;4,9;6,2;4,6;35,9;1253
2023-12-04 07:00:00;0,5;100582;74;0,0029;0,0;5,0;142;6,9;3,04;-3,92;1;0;nan;38,5;43,0;39,6;40,0;2,9;3,7;4,8;6,2;4,6;36,4;1249
2023-12-04 08:00:00;0,8;100542;73;0,0029;0,0;6,3;157;8,5;2,43;-5,81;23;0;nan;38,4;43,0;39,6;40,0;2,9;3,7;4,8;6,2;4,6;37,1;1243
2023-12-04 09:00:00;1,3;100464;72;0,003;0,0;6,4;148;8,9;3,35;-5,36;51;0;nan;38,4;43,0;39,6;40,0;2,9;3,7;4,8;6,2;4,6;37,3;1241
2023-12-04 10:00:00;1,5;100388;71;0,003;0,0;5,5;145;7,7;3,13;-4,46;84;0;nan;38,4;43,0;39,6;40,0;2,9;3,7;4,8;6,2;4,5;38,1;1235
2023-12-04 11:00:00;1,6;100320;71;0,003;0,0;5,0;144;6,9;2,9;-4,02;84;0;nan;38,4;43,0;39,6;40,0;2,9;3,6;4,8;6,1;4,5;38,1;1234
2023-12-04 12:00:00;1,8;100231;73;0,0031;0,0;4,9;141;6,1;3,08;-3,78;86;0;nan;38,4;43,0;39,6;40,0;2,9;3,6;4,8;6,2;4,5;38,0;1235
2023-12-04 13:00:00;1,7;100142;79;0,0034;0,0;4,8;135;6,6;3,37;-3,41;65;0;nan;38,4;43,0;39,6;40,0;2,9;3,6;4,8;6,1;4,5;38,4;1232
2023-12-04 14:00:00;1,6;100075;82;0,0035;0,0;5,3;128;7,6;4,13;-3,25;24;0;nan;38,4;43,0;39,6;40,0;2,9;3,6;4,7;6,1;4,5;38,1;1234
2023-12-04 15:00:00;1,6;100024;83;0,0035;0,0;5,2;132;7,2;3,82;-3,45;1;0;nan;38,4;43,0;39,6;39,9;2,9;3,6;4,7;6,1;4,5;38,3;1233
2023-12-04 16:00:00;1,1;99976;86;0,0036;0,39;5,0;130;7,7;3,84;-3,2;0;0;nan;38,4;43,0;39,6;39,9;2,9;3,6;4,7;6,1;4,5;38,3;1233
2023-12-04 17:00:00;1,1;99915;88;0,0036;0,51;4,8;119;7,2;4,18;-2,27;0;0;nan;38,4;43,0;39,5;39,9;2,9;3,6;4,7;6,1;4,5;38,1;1235
2023-12-04 18:00:00;1,2;99875;90;0,0037;0,59;4,4;117;6,8;3,89;-1,98;0;0;nan;38,5;43,0;39,6;39,9;3,0;3,6;4,7;6,1;4,5;38,4;1232
2023-12-04 19:00:00;1,3;99829;91;0,0038;0,37;4,0;117;5,5;3,59;-1,85;0;0;nan;39,4;43,2;39,6;39,9;2,9;3,6;4,7;6,1;4,5;38,1;1235
2023-12-04 20:00:00;1,8;99765;90;0,0039;0,34;3,6;110;5,2;3,4;-1,21;0;0;nan;40,6;43,7;39,6;39,9;2,9;3,6;4,7;6,0;4,5;38,4;1232
2023-12-04 21:00:00;2,2;99725;91;0,0041;0,17;3,3;112;4,7;3,06;-1,23;0;0;nan;41,3;44,2;39,7;39,9;3,0;3,6;4,7;6,0;4,5;38,6;1230
2023-12-04 22:00:00;2,5;99682;91;0,0042;0,18;3,6;114;4,5;3,33;-1,47;0;0;nan;41,8;44,4;39,8;39,9;3,0;3,6;4,7;6,0;4,5;38,3;1233
2023-12-04 23:00:00;2,8;99649;91;0,0043;0,23;3,6;110;5,4;3,39;-1,23;0;0;nan;42,3;44,5;40,0;39,9;3,0;3,6;4,6;6,0;4,5;38,4;1232
2023-12-05 00:00:00;3,0;99599;92;0,0044;0,16;2,6;109;3,9;2,49;-0,87;0;0;nan;42,4;44,5;40,2;39,9;3,0;3,6;4,6;6,0;4,5;38,3;1233
2023-12-05 01:00:00;3,1;99573;93;0,0044;0,12;2,3;91;3,6;2,33;-0,05;0;0;nan;42,2;44,4;40,3;40,0;3,1;3,6;4,6;6,0;4,6;37,5;1240
2023-12-05 02:00:00;3,2;99552;93;0,0045;0,09;2,4;89;3,2;2,37;0,04;0;0;nan;42,2;44,4;40,3;40,0;3,2;3,7;4,6;6,0;4,6;37,7;1238
2023-12-05 03:00:00;3,2;99537;93;0,0045;0,19;2,4;78;3,2;2,35;0,5;0;0;nan;42,3;44,4;40,3;40,1;3,2;3,7;4,6;6,0;4,6;37,7;1238
2023-12-05 04:00:00;3,2;99528;93;0,0045;0,13;2,5;74;3,3;2,4;0,69;0;0;nan;42,3;44,4;40,3;40,2;3,3;3,7;4,6;5,9;4,6;38,0;1236
2023-12-05 05:00:00;3,1;99543;94;0,0045;0,28;2,8;36;3,6;1,59;2,16;0;0;nan;42,3;44,4;40,3;40,3;3,3;3,8;4,6;5,9;4,6;38,1;1234
2023-12-05 06:00:00;2,8;99567;94;0,0044;0,2;3,1;31;3,8;1,57;2,63;0;0;nan;42,4;44,4;40,3;40,4;3,4;3,8;4,6;5,9;4,7;37,9;1236
2023-12-05 07:00:00;2,7;99621;94;0,0044;0,35;2,7;17;3,8;0,8;2,58;2;0;nan;42,9;44,5;40,4;40,5;3,4;3,8;4,6;5,9;4,7;37,2;1242
2023-12-05 08:00:00;2,7;99679;94;0,0044;0,33;3,1;16;3,8;0,85;2,92;10;0;nan;43,5;44,6;40,4;40,6;3,5;3,9;4,6;5,9;4,7;36,3;1250
2023-12-05 09:00:00;2,7;99733;95;0,0044;0,19;3,1;10;4,8;0,53;3,06;41;0;nan;43,9;44,9;40,4;40,7;3,5;3,9;4,6;5,9;4,7;36,1;1252
2023-12-05 10:00:00;2,9;99757;96;0,0045;0,0;3,5;359;4,8;-0,05;3,53;77;0;nan;43,3;44,7;40,5;40,8;3,5;3,9;4,7;5,9;4,7;35,7;1256
2023-12-05 11:00:00;2,8;99816;95;0,0044;0,0;3,3;350;4,5;-0,54;3,2;38;0;nan;42,9;44,6;40,5;40,9;3,6;4,0;4,7;5,9;4,7;35,5;1258
2023-12-05 12:00:00;2,4;99873;96;0,0043;0,0;3,5;342;4,8;-1,1;3,36;31;0;nan;42,6;44,6;40,4;40,9;3,7;4,0;4,7;5,9;4,8;35,5;1258
2023-12-05 13:00:00;2,1;99926;95;0,0042;0,0;3,2;330;4,6;-1,59;2,8;23;0;nan;42,3;44,5;40,4;40,9;3,7;4,1;4,7;5,9;4,8;35,1;1262
2023-12-05 14:00:00;1,9;100001;95;0,0041;0,02;3,1;332;4,5;-1,47;2,72;12;0;nan;42,1;44,5;40,4;41,0;3,7;4,1;4,7;5,8;4,8;34,3;1269
2023-12-05 15:00:00;1,6;100105;94;0,004;0,0;3,6;323;5,2;-2,16;2,9;0;0;nan;42,0;44,5;40,4;41,0;3,7;4,1;4,7;5,8;4,8;34,2;1270
2023-12-05 16:00:00;1,5;100194;94;0,004;0,0;2,6;321;3,9;-1,66;2,02;0;0;nan;41,8;44,5;40,4;41,0;3,8;4,1;4,7;5,8;4,8;34,3;1270
2023-12-05 17:00:00;1,5;100261;94;0,004;0,0;2,5;310;3,3;-1,86;1,56;0;0;nan;41,7;44,5;40,4;41,0;3,8;4,2;4,7;5,8;4,8;34,4;1268
2023-12-05 18:00:00;1,4;100342;94;0,0039;0,0;2,6;296;3,8;-2,31;1,14;0;0;nan;41,6;44,4;40,4;41,0;3,8;4,2;4,7;5,8;4,8;34,0;1272
2023-12-05 19:00:00;1,2;100408;94;0,0039;0,0;2,8;299;4,3;-2,42;1,36;0;0;nan;41,5;44,4;40,4;41,0;3,8;4,2;4,8;5,8;4,8;34,1;1271
2023-12-05 20:00:00;1,1;100448;94;0,0038;0,03;2,5;297;3,8;-2,17;1,12;0;0;nan;41,4;44,4;40,4;41,0;3,7;4,2;4,8;5,8;4,8;34,1;1271
2023-12-05 21:00:00;0,8;100491;93;0,0038;0,02;2,0;281;2,6;-1,95;0,4;0;0;nan;41,3;44,4;40,4;41,0;3,7;4,2;4,8;5,8;4,8;33,7;1275
2023-12-05 22:00:00;0,8;100549;93;0,0037;0,05;2,2;282;3,2;-2,14;0,46;0;0;nan;41,2;44,4;40,4;41,0;3,7;4,2;4,8;5,8;4,8;33,8;1274
2023-12-05 23:00:00;0,8;100591;93;0,0037;0,0;2,7;292;3,7;-2,47;1,02;0;0;nan;41,1;44,4;40,4;41,0;3,7;4,2;4,8;5,8;4,8;33,6;1276
2023-12-06 00:00:00;0,8;100633;92;0,0037;0,02;2,8;293;4,2;-2,56;1,09;0;0;nan;41,1;44,4;40,4;40,9;3,7;4,2;4,8;5,8;4,8;33,0;1283
2023-12-06 01:00:00;0,8;100691;92;0,0037;0,0;3,2;297;4,5;-2,8;1,46;0;0;nan;41,0;44,4;40,4;40,9;3,7;4,2;4,8;5,8;4,8;33,3;1279
2023-12-06 02:00:00;1,1;100751;91;0,0037;0,0;2,5;289;3,8;-2,38;0,81;0;0;nan;41,0;44,4;40,4;40,9;3,6;4,2;4,8;5,8;4,7;33,0;1282
2023-12-06 03:00:00;1,4;100774;92;0,0038;0,0;2,1;274;2,9;-2,05;0,15;0;0;nan;40,9;44,4;40,4;40,9;3,6;4,2;4,8;5,8;4,7;32,9;1283
2023-12-06 04:00:00;1,8;100812;92;0,004;0,03;2,4;275;4,0;-2,39;0,21;0;0;nan;40,9;44,4;40,4;40,9;3,6;4,2;4,8;5,8;4,7;33,0;1282
2023-12-06 05:00:00;2,1;100849;92;0,004;0,04;2,5;268;3,8;-2,51;-0,08;0;0;nan;40,9;44,4;40,4;40,9;3,6;4,2;4,8;5,8;4,7;32,7;1285
2023-12-06 06:00:00;2,5;100907;92;0,0042;0,02;2,5;274;4,0;-2,51;0,17;0;0;nan;40,8;44,3;40,4;40,9;3,6;4,2;4,8;5,8;4,7;32,3;1289
2023-12-06 07:00:00;2,7;100953;92;0,0042;0,0;2,0;266;3,0;-2,03;-0,14;1;0;nan;40,9;44,3;40,4;40,9;3,7;4,2;4,8;5,8;4,8;32,9;1284
2023-12-06 08:00:00;3,0;100990;92;0,0043;0,0;1,8;269;2,7;-1,79;-0,03;9;0;nan;40,8;44,3;40,4;40,9;3,7;4,2;4,8;5,8;4,8;32,7;1286
2023-12-06 09:00:00;3,4;101018;92;0,0044;0,0;1,9;266;3,2;-1,92;-0,12;31;0;nan;40,8;44,3;40,4;40,9;3,7;4,2;4,8;5,8;4,8;32,7;1286
2023-12-06 10:00:00;3,8;101066;92;0,0046;0,0;2,1;255;3,3;-1,99;-0,54;62;0;nan;40,8;44,3;40,4;40,9;3,7;4,2;4,8;5,8;4,8;32,6;1287
2023-12-06 11:00:00;4,7;101067;92;0,0049;0,0;2,4;268;3,8;-2,43;-0,08;162;0;nan;40,7;44,3;40,4;40,9;3,8;4,2;4,8;5,8;4,8;32,2;1291
2023-12-06 12:00:00;5,3;101081;85;0,0047;0,0;2,8;271;4,3;-2,82;0,07;85;0;nan;40,7;44,3;40,4;40,9;3,9;4,2;4,8;5,8;4,9;31,9;1294
2023-12-06 13:00:00;4,8;101107;85;0,0045;0,0;1,7;257;2,7;-1,63;-0,37;69;0;nan;40,6;44,2;40,4;40,8;4,0;4,3;4,8;5,8;4,9;31,9;1294
2023-12-06 14:00:00;4,1;101143;84;0,0042;0,0;1,5;259;2,5;-1,51;-0,28;24;0;nan;40,5;44,2;40,4;40,8;4,1;4,3;4,9;5,8;5,0;32,2;1291
2023-12-06 15:00:00;2,9;101217;86;0,004;0,0;1,5;252;2,5;-1,42;-0,47;5;0;nan;40,5;44,2;40,4;40,8;4,1;4,4;4,9;5,8;5,0;32,0;1293
2023-12-06 16:00:00;2,4;101338;86;0,0038;0,0;1,8;242;3,5;-1,57;-0,84;0;0;nan;40,5;44,2;40,4;40,8;4,1;4,4;4,9;5,8;5,0;32,1;1292
2023-12-06 17:00:00;2,0;101401;89;0,0039;0,0;1,8;233;2,9;-1,44;-1,08;0;0;nan;40,4;44,2;40,4;40,8;4,0;4,4;4,9;5,8;4,9;31,8;1295
2023-12-06 18:00:00;2,0;101463;89;0,0039;0,0;1,9;243;2,9;-1,66;-0,84;0;0;nan;40,4;44,2;40,4;40,8;4,0;4,4;4,9;5,8;4,9;31,9;1294
2023-12-06 19:00:00;1,8;101500;90;0,0039;0,0;2,0;238;3,8;-1,65;-1,03;0;0;nan;40,4;44,1;40,4;40,8;3,9;4,4;4,9;5,8;4,9;31,9;1295
2023-12-06 20:00:00;1,2;101542;90;0,0037;0,02;1,6;243;2,1;-1,37;-0,71;0;0;nan;40,3;44,1;40,4;40,8;3,9;4,4;4,9;5,8;4,9;31,6;1297
2023-12-06 21:00:00;1,0;101577;90;0,0036;0,02;1,7;213;2,2;-0,85;-1,3;0;0;nan;40,3;44,1;40,3;40,8;3,8;4,4;4,9;5,8;4,8;32,0;1293
2023-12-06 22:00:00;0,3;101596;91;0,0035;0,04;1,5;186;1,9;-0,17;-1,51;0;0;nan;40,3;44,1;40,3;40,8;3,8;4,4;4,9;5,8;4,8;32,0;1293
2023-12-06 23:00:00;0,4;101645;90;0,0035;0,04;1,3;193;1,9;-0,29;-1,28;0;0;nan;40,2;44,1;40,3;40,8;3,7;4,3;4,9;5,8;4,8;32,0;1293
2023-12-07 00:00:00;0,1;101651;90;0,0034;0,0;0,8;173;1,2;0,09;-0,72;0;0;nan;40,2;44,0;40,3;40,8;3,7;4,3;4,9;5,8;4,8;32,4;1288
2023-12-07 01:00:00;-0,4;101655;92;0,0033;0,0;1,2;153;1,7;0,49;-0,96;0;0;nan;40,2;44,0;40,3;40,8;3,6;4,3;4,9;5,8;4,7;32,6;1287
2023-12-07 02:00:00;-0,6;101672;92;0,0033;0,0;1,5;166;1,9;0,36;-1,4;0;0;nan;40,1;44,0;40,3;40,8;3,5;4,2;4,9;5,8;4,7;32,4;1289
2023-12-07 03:00:00;-0,8;101660;93;0,0033;0,0;2,7;177;3,5;0,13;-2,68;0;0;nan;40,1;44,0;40,3;40,8;3,5;4,2;4,9;5,8;4,7;32,2;1291
2023-12-07 04:00:00;-0,8;101677;94;0,0033;0,0;2,6;178;3,7;0,08;-2,62;0;0;nan;40,0;44,0;40,3;40,8;3,4;4,2;4,9;5,8;4,7;32,3;1290
2023-12-07 05:00:00;-0,8;101700;94;0,0033;0,0;3,4;190;4,5;-0,59;-3,29;0;0;nan;40,0;43,9;40,3;40,8;3,4;4,1;4,9;5,8;4,6;32,3;1289
2023-12-07 06:00:00;-0,6;101680;94;0,0034;0,0;3,8;175;5,1;0,33;-3,76;0;0;nan;40,0;43,9;40,3;40,7;3,4;4,1;4,9;5,8;4,6;32,5;1287
2023-12-07 07:00:00;-0,4;101680;94;0,0034;0,0;3,4;171;4,5;0,56;-3,38;2;0;nan;39,9;43,9;40,3;40,7;3,3;4,0;4,9;5,8;4,6;32,5;1288
2023-12-07 08:00:00;-0,3;101690;95;0,0035;0,0;3,6;172;5,0;0,47;-3,52;18;0;nan;39,9;43,9;40,3;40,7;3,3;4,0;4,8;5,8;4,6;33,2;1281
2023-12-07 09:00:00;-0,2;101678;95;0,0035;0,0;3,7;167;4,8;0,8;-3,57;35;0;nan;39,8;43,9;40,3;40,7;3,3;4,0;4,8;5,8;4,6;33,0;1282
2023-12-07 10:00:00;0,2;101630;95;0,0036;0,02;2,7;162;3,9;0,84;-2,58;67;0;nan;39,8;43,9;40,3;40,7;3,3;3,9;4,8;5,8;4,6;33,0;1282
2023-12-07 11:00:00;0,6;101510;98;0,0038;0,0;3,5;154;4,7;1,53;-3,11;124;0;nan;39,8;43,9;40,3;40,7;3,3;3,9;4,8;5,8;4,6;33,0;1283
2023-12-07 12:00:00;1,6;101430;99;0,0042;0,0;3,2;158;4,3;1,18;-2,86;117;0;nan;39,9;43,9;40,3;40,7;3,3;3,9;4,8;5,8;4,6;33,2;1281
2023-12-07 13:00:00;3,0;101318;98;0,0046;0,0;3,2;130;4,6;2,38;-2,03;111;0;nan;39,9;43,9;40,3;40,7;3,4;3,9;4,8;5,8;4,6;33,6;1276
2023-12-07 14:00:00;2,6;101245;92;0,0042;0,0;3,2;122;4,8;2,7;-1,71;36;0;nan;39,9;43,9;40,3;40,7;3,5;3,9;4,8;5,8;4,6;34,1;1271
2023-12-07 15:00:00;2,0;101215;88;0,0038;0,0;2,8;112;4,0;2,6;-1,02;4;0;nan;39,9;43,9;40,3;40,7;3,5;4,0;4,7;5,8;4,7;34,7;1265
2023-12-07 16:00:00;1,5;101148;88;0,0037;0,0;2,1;113;3,4;1,93;-0,82;0;0;nan;39,9;43,9;40,3;40,7;3,5;4,0;4,7;5,8;4,7;34,6;1266
2023-12-07 17:00:00;1,6;101088;86;0,0037;0,0;2,5;113;3,5;2,32;-1,01;0;0;nan;39,9;43,8;40,3;40,6;3,5;4,0;4,7;5,8;4,6;34,8;1264
2023-12-07 18:00:00;2,0;101007;85;0,0037;0,0;3,7;123;5,2;3,1;-2,0;0;0;nan;39,9;43,8;40,3;40,6;3,5;4,0;4,7;5,8;4,6;34,6;1266
2023-12-07 19:00:00;2,3;100946;81;0,0036;0,0;4,9;139;7,0;3,22;-3,7;0;0;nan;39,8;43,8;40,3;40,6;3,5;4,0;4,7;5,8;4,6;34,7;1265
2023-12-07 20:00:00;2,2;100815;80;0,0035;0,0;5,3;132;8,2;3,92;-3,51;0;0;nan;39,8;43,8;40,3;40,6;3,4;4,0;4,7;5,7;4,6;34,5;1267
2023-12-07 21:00:00;2,1;100707;81;0,0036;0,0;5,5;127;7,1;4,4;-3,26;0;0;nan;39,8;43,8;40,3;40,6;3,4;4,0;4,7;5,7;4,6;34,0;1272
2023-12-07 22:00:00;2,3;100598;82;0,0036;0,0;5,6;128;7,9;4,35;-3,45;0;0;nan;39,8;43,8;40,2;40,6;3,4;4,0;4,7;5,7;4,6;34,5;1267
2023-12-07 23:00:00;2,7;100544;79;0,0036;0,0;5,6;134;7,6;4,0;-3,9;0;0;nan;39,8;43,8;40,2;40,6;3,4;4,0;4,7;5,7;4,6;34,2;1270
2023-12-08 00:00:00;2,9;100466;77;0,0036;0,0;5,3;144;7,4;3,06;-4,28;0;0;nan;39,7;43,8;40,2;40,6;3,4;4,0;4,7;5,7;4,6;34,4;1268
2023-12-08 01:00:00;3,0;100399;76;0,0036;0,0;5,3;145;6,8;3,02;-4,35;0;0;nan;39,7;43,8;40,2;40,6;3,4;3,9;4,7;5,7;4,6;34,0;1272
2023-12-08 02:00:00;2,8;100365;78;0,0036;0,05;4,3;150;5,4;2,17;-3,71;0;0;nan;39,7;43,8;40,2;40,6;3,4;3,9;4,7;5,7;4,6;34,5;1267
2023-12-08 03:00:00;2,4;100283;81;0,0037;0,11;4,5;134;6,1;3,2;-3,06;0;0;nan;39,7;43,8;40,2;40,6;3,4;3,9;4,7;5,7;4,6;34,7;1265
2023-12-08 04:00:00;2,3;100276;84;0,0038;0,06;4,2;157;5,8;1,54;-3,72;0;0;nan;39,7;43,8;40,2;40,6;3,4;3,9;4,7;5,7;4,6;34,8;1264
2023-12-08 05:00:00;2,2;100274;86;0,0038;0,0;4,6;161;6,3;1,52;-4,34;0;0;nan;39,7;43,8;40,2;40,6;3,4;3,9;4,7;5,7;4,6;34,9;1263
2023-12-08 06:00:00;2,2;100281;88;0,0039;0,03;4,6;163;6,2;1,32;-4,43;0;0;nan;39,7;43,8;40,2;40,5;3,4;3,9;4,7;5,7;4,5;35,1;1261
2023-12-08 07:00:00;2,4;100294;89;0,004;0,02;4,1;166;5,7;0,97;-4,0;1;0;nan;39,8;43,8;40,2;40,5;3,4;3,9;4,7;5,7;4,5;34,8;1264
2023-12-08 08:00:00;2,6;100322;90;0,0041;0,0;4,2;175;5,4;0,34;-4,18;12;0;nan;39,8;43,8;40,2;40,5;3,4;3,9;4,7;5,7;4,6;34,6;1266
2023-12-08 09:00:00;2,8;100335;92;0,0043;0,03;4,2;179;5,5;0,08;-4,19;30;0;nan;39,8;43,8;40,2;40,5;3,4;3,9;4,7;5,7;4,6;34,8;1264
2023-12-08 10:00:00;3,2;100356;93;0,0044;0,0;4,3;182;5,3;-0,14;-4,3;30;0;nan;39,9;43,8;40,2;40,5;3,5;3,9;4,6;5,7;4,6;35,0;1263
2023-12-08 11:00:00;4,5;100340;93;0,0049;0,0;4,3;189;5,4;-0,69;-4,2;54;0;nan;39,9;43,8;40,2;40,5;3,5;4,0;4,6;5,7;4,6;35,2;1260
2023-12-08 12:00:00;5,9;100353;94;0,0054;0,0;4,2;198;5,2;-1,29;-3,99;65;0;nan;39,9;43,7;40,2;40,5;3,6;4,0;4,6;5,6;4,6;35,1;1261
2023-12-08 13:00:00;6,5;100390;94;0,0056;0,0;4,6;203;5,8;-1,82;-4,19;25;0;nan;39,9;43,8;40,2;40,5;3,7;4,0;4,6;5,6;4,7;34,9;1263
2023-12-08 14:00:00;6,8;100465;94;0,0058;0,0;3,2;200;4,4;-1,09;-3,03;12;0;nan;39,9;43,8;40,2;40,5;3,8;4,1;4,6;5,6;4,8;34,2;1270